Bowling Green, KY

11:05 AM CST on February 27, 2017 (GMT -0600)
Bowling Green-Warren County Regional

Weather History for KBWG - March, 2013

Change the Weather History Date:

Tuesday, March 19, 2013

  Actual Average Record
Temperature  
Mean Temperature 43 °F 49 °F  
Max Temperature 53 °F 61 °F 86 °F (1907)
Min Temperature 33 °F 38 °F 8 °F (1892)
Degree Days  
Heating Degree Days 22 16  
Month to date heating degree days 407 353  
Since 1 July heating degree days 3302 3551  
Cooling Degree Days 0 0  
Month to date cooling degree days 0 0  
Year to date cooling degree days 0 0  
Moisture  
Dew Point 21 °F    
Average Humidity 56    
Maximum Humidity 92    
Minimum Humidity 19    
Precipitation  
Precipitation 0.00 in 0.15 in 2.60 in (1943)
Month to date precipitation 4.01 2.63  
Year to date precipitation 11.70 10.20  
Snow  
Snow 0.00 in 0.10 in 2.00 in (1990)
Month to date snowfall 1.5 0.7  
Since 1 July snowfall 2.8 8.5  
Snow Depth 0.00 in    
Sea Level Pressure  
Sea Level Pressure 30.14 in    
Wind  
Wind Speed 6 mph (WNW)    
Max Wind Speed 16 mph    
Max Gust Speed 22 mph    
Visibility 10 miles    
Events      
T = Trace of Precipitation, MM = Missing Value Source: NWS Daily Summary

Daily Weather History Graph

Daily Weather History Graph

Search for Another Location

Airport or City:

Trip Planner

Search our weather history database for the weather conditions in past years. The results will help you decide how hot, cold, wet, or windy it might be!

Date:

Astronomy

Mar. 19, 2013 Rise Set
Actual Time 6:50 AM CDT 6:56 PM CDT
Civil Twilight 6:24 AM CDT 7:22 PM CDT
Nautical Twilight 5:54 AM CDT 7:53 PM CDT
Astronomical Twilight 5:23 AM CDT 8:23 PM CDT
Moon 11:48 AM CDT (3/19) 1:35 AM CDT (3/19)
Length of Visible Light 12h 58m
Length of Day
12h 06m
Waxing Crescent, 50% of the Moon is Illuminated
Mar 19
Waxing Crescent
Mar 19
First Quarter
Mar 27
Full
Apr 2
Last Quarter
Apr 10
New

Hourly Weather History & Observations

Time (CDT) Temp. Windchill Dew Point Humidity Pressure Visibility Wind Dir Wind Speed Gust Speed Precip Events Conditions
12:53 AM 39.9 °F 35.1 °F 34.0 °F 79% 30.01 in 10.0 mi SW 6.9 mph - N/A   Clear
1:53 AM 39.0 °F 34.0 °F 35.1 °F 86% 30.03 in 10.0 mi SW 6.9 mph - N/A   Clear
2:53 AM 37.9 °F 34.4 °F 34.0 °F 86% 30.04 in 10.0 mi WSW 4.6 mph - N/A   Clear
3:53 AM 37.0 °F 34.5 °F 34.0 °F 89% 30.04 in 10.0 mi West 3.5 mph - N/A   Clear
4:53 AM 37.0 °F 34.5 °F 33.1 °F 86% 30.04 in 7.0 mi SW 3.5 mph - N/A   Clear
5:53 AM 35.1 °F 32.2 °F 33.1 °F 92% 30.05 in 5.0 mi West 3.5 mph - N/A   Clear
6:53 AM 36.0 °F 32.1 °F 32.0 °F 86% 30.09 in 9.0 mi WNW 4.6 mph - N/A   Clear
7:53 AM 37.0 °F 32.4 °F 28.0 °F 70% 30.13 in 10.0 mi NW 5.8 mph - N/A   Clear
8:53 AM 39.0 °F 33.4 °F 26.1 °F 60% 30.15 in 10.0 mi WNW 8.1 mph - N/A   Clear
9:53 AM 42.1 °F 35.2 °F 21.9 °F 45% 30.14 in 10.0 mi West 12.7 mph - N/A   Clear
10:53 AM 44.1 °F 39.0 °F 16.0 °F 32% 30.17 in 10.0 mi WNW 9.2 mph 17.3 mph N/A   Clear
11:53 AM 46.9 °F - 18.0 °F 32% 30.18 in 10.0 mi NW 8.1 mph - N/A   Clear
12:53 PM 48.9 °F - 17.1 °F 28% 30.18 in 10.0 mi NW 13.8 mph 21.9 mph N/A   Clear
1:53 PM 52.0 °F - 16.0 °F 24% 30.18 in 10.0 mi NW 8.1 mph 19.6 mph N/A   Clear
2:53 PM 53.1 °F - 12.9 °F 20% 30.17 in 10.0 mi NW 9.2 mph 16.1 mph N/A   Clear
3:53 PM 52.0 °F - 10.9 °F 19% 30.18 in 10.0 mi NNW 10.4 mph 21.9 mph N/A   Clear
4:53 PM 51.1 °F - 10.9 °F 20% 30.18 in 10.0 mi Variable 5.8 mph 18.4 mph N/A   Partly Cloudy
5:53 PM 48.9 °F - 8.1 °F 19% 30.19 in 10.0 mi NW 10.4 mph - N/A   Clear
6:53 PM 46.9 °F - 10.0 °F 22% 30.19 in 10.0 mi WNW 6.9 mph - N/A   Clear
7:53 PM 46.0 °F 42.5 °F 12.9 °F 26% 30.20 in 10.0 mi NW 6.9 mph - N/A   Mostly Cloudy
8:53 PM 45.0 °F 43.5 °F 14.0 °F 29% 30.21 in 10.0 mi NNW 3.5 mph - N/A   Mostly Cloudy
9:53 PM 44.1 °F - 16.0 °F 32% 30.20 in 10.0 mi Calm Calm - N/A   Mostly Cloudy
10:53 PM 42.1 °F - 17.1 °F 37% 30.19 in 10.0 mi Calm Calm - N/A   Partly Cloudy
11:53 PM 37.9 °F - 19.9 °F 48% 30.19 in 10.0 mi Calm Calm - N/A   Scattered Clouds